Miscellaneous Local Product
Issued by NWS Hastings, NE

Home | Current Version | Previous Version | Graphics & Text | Print | Product List | Glossary On
Versions: 1 2 3 4 5 6 7 8 9 10 11 12 13 14 15 16 17 18 19 20 21 22 23 24 25 26 27 28 29 30 31 32 33 34 35 36 37 38 39 40 41 42 43 44 45 46 47 48 49 50
256
AXUS43 KGID 091402
MISGRI

GID CWA HOURLY WEATHER ROUNDUP
NATIONAL WEATHER SERVICE HASTINGS NE
800 AM CST TUE FEB 09 2016

NOTE: "FAIR" INDICATES FEW OR NO CLOUDS BELOW 12,000 FEET WITH NO
SIGNIFICANT WEATHER AND/OR OBSTRUCTIONS TO VISIBILITY.

...SOUTH CENTRAL NEBRASKA...

CITY           SKY/WX    TMP DP  RH WIND       PRES   REMARKS
GRAND ISLAND   CLOUDY    20  12  71 NW12      30.24R WCI   8
HASTINGS       CLOUDY    23  15  71 N12       30.23R WCI  12
ORD            CLOUDY    24  15  68 N15       30.24R WCI  11
YORK           PTCLDY    18  10  73 N10       30.23R WCI   6
AURORA         CLEAR     16  10  76 NW9       30.23R WCI   4
LEXINGTON      CLOUDY    28  19  68 NW7       30.24R WCI  21
HOLDREGE       CLOUDY    27  18  68 N8        30.23S WCI  19
HEBRON         CLEAR     21  12  68 N9        30.25R WCI  11

...NEBRASKA PANHANDLE...

CITY           SKY/WX    TMP DP  RH WIND       PRES   REMARKS
CHADRON        CLOUDY    34  27  75 W7        30.23F WCI  28
ALLIANCE       CLEAR     22  19  89 W8        30.21S WCI  12
SCOTTSBLUFF    CLEAR     28  22  78 NW10      30.26F WCI  19
SIDNEY         CLEAR     30  23  75 NW14      30.24S WCI  19

...WESTERN AND NORTH CENTRAL NEBRASKA...

CITY           SKY/WX    TMP DP  RH WIND       PRES   REMARKS
VALENTINE      CLOUDY    24  19  81 NE10      30.26R WCI  14
AINSWORTH      CLOUDY    22  17  81 N10       30.24R WCI  11
ONEILL         CLOUDY    20  12  72 N16       30.26R WCI   5
BROKEN BOW     CLOUDY    26  19  74 N9        30.21S WCI  17
IMPERIAL       CLEAR     27  21  78 NW9       30.25R WCI  18
NORTH PLATTE   CLOUDY    26  19  74 NW5       30.24R WCI  20
MCCOOK         CLOUDY    28  18  66 NW6       30.25S WCI  22

...EASTERN NEBRASKA...

CITY           SKY/WX    TMP DP  RH WIND       PRES   REMARKS
NORFOLK        CLEAR     14   6  70 NW13      30.23R WCI   0
SO SIOUX CITY  CLEAR     11   2  67 NW24      30.22R WCI  -9
TEKAMAH        CLEAR     14   3  61 NW24      30.22R WCI  -5
COLUMBUS       CLEAR     16   0  48 W18G25    30.23R WCI  -1
ALBION         MOCLDY    18   8  64 N20       30.23R WCI   2
OMAHA EPPLEY   PTCLDY    13   6  74 NW17      30.20R WCI  -4
OFFUTT AFB     PTCLDY    15   5  66 NW17      30.20R WCI  -2
MILLARD        CLEAR     15   6  67 NW10G20   30.20S WCI   2
LINCOLN        CLEAR     18   6  59 N21       30.23R WCI   1
NEBRASKA CITY  CLEAR     16   7  68 N16G25    30.18R WCI   0
BEATRICE       CLEAR     19   8  60 N21       30.22R WCI   3
FALLS CITY     PTCLDY    18   8  65 N13       30.18R WCI   5

...NORTHERN KANSAS...

CITY           SKY/WX    TMP DP  RH WIND       PRES   REMARKS
GOODLAND       CLEAR     32  24  72 NW13      30.23R WCI  22
HILL CITY      CLOUDY    26  19  74 S6        30.26R WCI  19
NORTON         PTSUNNY   28  18  64 NW7       30.24S WCI  21
PHILLIPSBURG   CLOUDY    32  21  64 CALM      30.27S
SMITH CENTER   MOCLDY    27  19  74 NW7       30.26R WCI  19
BELOIT         CLOUDY    27  18  69 N12G17    30.26R WCI  16
HAYS           MOCLDY    30  16  55 NW9       30.25R WCI  22
RUSSELL        CLOUDY    32  19  58 N13       30.24R WCI  22
CONCORDIA      CLOUDY    24  13  62 N16G24    30.24R WCI  11
SALINA         CLOUDY    31  17  56 N17       30.26R WCI  19
TOPEKA         CLEAR     24   9  52 NW17G24   30.18R WCI  11



USA.gov is the U.S. government's official web portal to all federal, state and local government web resources and services.